Mobile Downtown, AL

5:37 PM CDT on August 17, 2017 (GMT -0500)
Mobile Downtown

Weather History for KBFM - September, 2012

Change the Weather History Date:

Friday, September 21, 2012

  Actual Average Record
Temperature  
Mean Temperature 76 °F -  
Max Temperature 88 °F 83 °F 97 °F (1997)
Min Temperature 66 °F 66 °F 57 °F (2006)
Cooling Degree Days 12    
Growing Degree Days 26 (Base 50)    
Moisture  
Dew Point 65 °F    
Average Humidity 70    
Maximum Humidity 93    
Minimum Humidity 41    
Precipitation  
Precipitation 0.00 in - - ()
Sea Level Pressure  
Sea Level Pressure 30.03 in    
Wind  
Wind Speed 4 mph (NNE)    
Max Wind Speed 8 mph    
Max Gust Speed -    
Visibility 10 miles    
Events      
Averages and records for this station are not official NWS values.
T = Trace of Precipitation, MM = Missing Value Source: NWS Daily Summary

Daily Weather History Graph

Daily Weather History Graph

Search for Another Location

Airport or City:

Trip Planner

Search our weather history database for the weather conditions in past years. The results will help you decide how hot, cold, wet, or windy it might be!

Date:

Astronomy

Sep. 21, 2012 Rise Set
Actual Time 6:40 AM CDT 6:49 PM CDT
Civil Twilight 6:16 AM CDT 7:13 PM CDT
Nautical Twilight 5:48 AM CDT 7:41 PM CDT
Astronomical Twilight 5:19 AM CDT 8:09 PM CDT
Moon 12:36 PM CDT (9/21) 11:14 PM CDT (9/21)
Length of Visible Light 12h 57m
Length of Day
12h 09m
Waxing Crescent, 37% of the Moon is Illuminated
Sep 21
Waxing Crescent
Sep 22
First Quarter
Sep 29
Full
Oct 8
Last Quarter
Oct 15
New

Hourly Weather History & Observations

Time (CDT) Temp. Heat Index Dew Point Humidity Pressure Visibility Wind Dir Wind Speed Gust Speed Precip Events Conditions
12:53 AM 69.1 °F - 64.0 °F 84% 30.04 in 10.0 mi NW 4.6 mph - N/A   Clear
1:53 AM 68.0 °F - 63.0 °F 84% 30.04 in 10.0 mi NW 3.5 mph - N/A   Clear
2:53 AM 66.9 °F - 63.0 °F 87% 30.04 in 10.0 mi Calm Calm - N/A   Clear
3:22 AM 66.2 °F - 62.6 °F 88% 30.04 in 10.0 mi NW 3.5 mph - N/A   Clear
3:53 AM 66.9 °F - 63.0 °F 87% 30.04 in 10.0 mi NW 3.5 mph - N/A   Clear
4:53 AM 66.0 °F - 63.0 °F 90% 30.04 in 10.0 mi NW 4.6 mph - N/A   Clear
5:53 AM 66.0 °F - 63.0 °F 90% 30.04 in 10.0 mi NNW 4.6 mph - N/A   Clear
6:53 AM 69.1 °F - 63.0 °F 81% 30.04 in 10.0 mi NE 4.6 mph - N/A   Partly Cloudy
7:53 AM 73.9 °F - 63.0 °F 68% 30.04 in 10.0 mi NE 3.5 mph - N/A   Clear
8:53 AM 75.0 °F - 63.0 °F 66% 30.05 in 10.0 mi NNE 5.8 mph - N/A   Clear
9:53 AM 79.0 °F - 63.0 °F 58% 30.05 in 10.0 mi NE 4.6 mph - N/A   Clear
10:53 AM 82.0 °F 83.1 °F 63.0 °F 52% 30.06 in 10.0 mi NE 6.9 mph - N/A   Clear
11:53 AM 84.9 °F 86.1 °F 64.0 °F 49% 30.06 in 10.0 mi NNE 5.8 mph - N/A   Partly Cloudy
12:53 PM 86.0 °F 86.8 °F 63.0 °F 46% 30.04 in 10.0 mi ENE 4.6 mph - N/A   Partly Cloudy
1:53 PM 87.1 °F 87.0 °F 61.0 °F 41% 30.02 in 10.0 mi SE 4.6 mph - N/A   Scattered Clouds
2:53 PM 87.1 °F 87.8 °F 63.0 °F 44% 30.00 in 10.0 mi SE 5.8 mph - N/A   Scattered Clouds
3:53 PM 87.1 °F 87.5 °F 62.1 °F 43% 29.99 in 10.0 mi Variable 3.5 mph - N/A   Scattered Clouds
4:53 PM 87.1 °F 88.3 °F 64.0 °F 46% 29.98 in 10.0 mi ESE 4.6 mph - N/A   Partly Cloudy
5:53 PM 84.0 °F 86.5 °F 66.9 °F 56% 29.97 in 10.0 mi Calm Calm - N/A   Partly Cloudy
6:53 PM 80.1 °F 82.7 °F 68.0 °F 67% 29.98 in 10.0 mi SSE 8.1 mph - N/A   Partly Cloudy
7:53 PM 79.0 °F - 71.1 °F 77% 30.00 in 10.0 mi Calm Calm - N/A   Clear
8:53 PM 75.0 °F - 70.0 °F 84% 30.01 in 10.0 mi Calm Calm - N/A   Clear
9:53 PM 73.9 °F - 70.0 °F 87% 30.03 in 10.0 mi Calm Calm - N/A   Clear
10:53 PM 72.0 °F - 69.1 °F 91% 30.03 in 10.0 mi West 3.5 mph - N/A   Clear
11:53 PM 71.1 °F - 69.1 °F 93% 30.03 in 10.0 mi Calm Calm - N/A   Clear